LiveATC.Net - Listen to live air traffic control over the Internet!


ICAO: KGYH  IATA: GYH   Airport: Donaldson Field Airport
City: Greenville   State/Province: South Carolina
Country: United States   Continent: North America
KGYH METAR Weather: KGYH 081247Z 25006KT 10SM BKN075 08/03 A3030
KGYH ADS-B Flight Tracking  (ADSBExchange)
KGYH Flight Activity (FlightAware)
KGYH Airport Info   (iFlightPlanner)
KGYH VFR Sectional Chart   (iFlightPlanner) 
KGYH IFR Low Altitude Chart   (iFlightPlanner) 
KGYH IFR High Altitude Chart   (iFlightPlanner) 

KGYH Tower
Feed Status: UP   Listeners: 0
Listen in your browser - HTML5 player (in browser, HTML5)
Click here to listen with your own player (launches your MP3 player)
Archive Access: KGYH Tower
FacilityFrequency
Donaldson Tower133.325

NOTICE

Unauthorized use prohibited. See LiveATC.net Terms of Service


Airport/ARTCC Code
Frequency Search
(e.g., 124.400, 128.75)
Site-wide search
 


Browse Feeds
Top 50 Feeds
HF Oceanic Feeds
Coverage Map
Bad Weather Areas

LiveATC FAQ
Offer LiveATC feed
Contact LiveATC.net
Press Inquiries

LiveATC on iPhone
LiveATC on Android

LiveATC Mobile
(Mobile browser)

ATC Audio Archives
Interesting Recordings

LiveATC Forums


Home Page
About LiveATC.net


Terms of Use
Privacy Policy

AIRMETs/SIGMETs

FAA Airport Status
NAS Status
Arrival Demand


Server Software By:
Icecast.org
Liquidsoap